Shelbyville, IN

12:24 PM EST on November 13, 2019 (GMT -0500)
Shelbyville Municipal

Weather History for KGEZ - October, 2019

Change the Weather History Date:

Sunday, October 13, 2019

  Actual Average Record
Temperature  
Mean Temperature 53 °F 55 °F  
Max Temperature 69 °F 67 °F 79 °F (2008)
Min Temperature 37 °F 43 °F 30 °F (2006)
Degree Days  
Heating Degree Days 12 11  
Month to date heating degree days 63 115  
Since 1 July heating degree days 66 200  
Cooling Degree Days 0 0  
Month to date cooling degree days 36 11  
Year to date cooling degree days 1330 910  
Growing Degree Days 3 (Base 50)    
Moisture  
Dew Point 34 °F    
Average Humidity 54    
Maximum Humidity 82    
Minimum Humidity 26    
Precipitation  
Precipitation 0.00 in 0.10 in 1.04 in (2014)
Month to date precipitation 0.80 1.37  
Year to date precipitation 33.01 34.82  
Sea Level Pressure  
Sea Level Pressure 29.96 in    
Wind  
Wind Speed 10 mph (SSW)    
Max Wind Speed 20 mph    
Max Gust Speed 28 mph    
Visibility 10 miles    
Events      
T = Trace of Precipitation, MM = Missing Value Source: NWS Daily Summary

Daily Weather History Graph

Daily Weather History Graph

Search for Another Location

Airport or City:

Astronomy

Oct. 13, 2019 Rise Set
Actual Time 7:50 AM EDT 7:07 PM EDT
Civil Twilight 7:23 AM EDT 7:34 PM EDT
Nautical Twilight 6:52 AM EDT 8:05 PM EDT
Astronomical Twilight 6:21 AM EDT 8:36 PM EDT
Moon 7:29 PM EDT 7:24 AM EDT
Length of Visible Light 12h 10m
Length of Day
11h 16m
Full, 100% of the Moon is Illuminated
Oct 13
Full
Oct 13
Full
Oct 21
Last Quarter
Oct 27
New
Nov 4
First Quarter

Hourly Weather History & Observations

Time (EDT) Temp. Windchill Dew Point Humidity Pressure Visibility Wind Dir Wind Speed Gust Speed Precip Events Conditions
12:53 AM 42.1 °F 37.1 °F 32.0 °F 67% 30.04 in 10.0 mi South 8.1 mph - N/A   Clear
1:53 AM 42.1 °F 36.6 °F 32.0 °F 67% 30.02 in 10.0 mi South 9.2 mph - N/A   Clear
2:53 AM 41.0 °F 36.4 °F 30.9 °F 67% 30.03 in 10.0 mi South 6.9 mph - N/A   Clear
3:53 AM 41.0 °F 34.3 °F 32.0 °F 70% 30.02 in 10.0 mi South 11.5 mph - N/A   Clear
4:53 AM 39.9 °F 34.5 °F 32.0 °F 73% 30.01 in 10.0 mi South 8.1 mph - N/A   Clear
5:53 AM 39.9 °F 34.5 °F 32.0 °F 73% 30.01 in 10.0 mi South 8.1 mph - N/A   Clear
6:53 AM 39.9 °F 33.9 °F 32.0 °F 73% 30.01 in 10.0 mi South 9.2 mph - N/A   Clear
7:53 AM 37.9 °F 32.7 °F 32.0 °F 79% 30.01 in 10.0 mi South 6.9 mph - N/A   Clear
8:53 AM 41.0 °F 35.2 °F 33.1 °F 73% 30.01 in 10.0 mi South 9.2 mph - N/A   Clear
9:53 AM 46.0 °F 41.9 °F 35.1 °F 66% 30.01 in 10.0 mi SSW 8.1 mph - N/A   Clear
10:53 AM 53.1 °F - 36.0 °F 52% 29.99 in 10.0 mi SW 10.4 mph - N/A   Clear
11:53 AM 60.1 °F - 37.0 °F 42% 29.97 in 10.0 mi SSW 11.5 mph - N/A   Clear
12:53 PM 62.1 °F - 36.0 °F 38% 29.95 in 10.0 mi SSW 10.4 mph 19.6 mph N/A   Clear
1:53 PM 66.0 °F - 36.0 °F 33% 29.93 in 10.0 mi SSW 15.0 mph 23.0 mph N/A   Clear
2:53 PM 68.0 °F - 34.0 °F 28% 29.91 in 10.0 mi SSW 16.1 mph 25.3 mph N/A   Clear
3:53 PM 69.1 °F - 34.0 °F 27% 29.89 in 10.0 mi SW 17.3 mph 25.3 mph N/A   Clear
4:53 PM 69.1 °F - 34.0 °F 27% 29.88 in 10.0 mi SSW 16.1 mph 21.9 mph N/A   Clear
5:53 PM 66.9 °F - 33.1 °F 28% 29.89 in 10.0 mi SW 15.0 mph 27.6 mph N/A   Clear
6:53 PM 63.0 °F - 35.1 °F 35% 29.90 in 10.0 mi SSW 10.4 mph 17.3 mph N/A   Clear
7:53 PM 57.9 °F - 35.1 °F 42% 29.90 in 10.0 mi South 8.1 mph - N/A   Clear
8:53 PM 57.0 °F - 36.0 °F 45% 29.92 in 10.0 mi SSW 8.1 mph - N/A   Clear
9:53 PM 53.1 °F - 36.0 °F 52% 29.94 in 10.0 mi SSW 6.9 mph - N/A   Clear
10:53 PM 50.0 °F - 37.0 °F 61% 29.94 in 10.0 mi SSW 6.9 mph - N/A   Clear
11:53 PM 50.0 °F - 37.9 °F 63% 29.95 in 10.0 mi SW 5.8 mph - N/A   Clear